• MPC Preparation (Info)

  • MPEC 2013-V80 : 2013 VN13

    The following Minor Planet Electronic Circular may be linked-to from your own Web pages, but must not otherwise be redistributed electronically.

    A form allowing access to any MPEC is at the bottom of this page.


    Read MPEC 2013-V79 Read MPEC 2013-V81


    M.P.E.C. 2013-V80                                Issued 2013 Nov. 12, 17:35 UT
    
         The Minor Planet Electronic Circulars contain information on unusual
             minor planets and routine data on comets.  They are published
       on behalf of Commission 20 of the International Astronomical Union by the
              Minor Planet Center, Smithsonian Astrophysical Observatory,
                              Cambridge, MA 02138, U.S.A.
    
                 Prepared using the Tamkin Foundation Computer Network
    
                                  MPC@CFA.HARVARD.EDU
                URL https://www.minorplanetcenter.net/    ISSN 1523-6714
    
                                       2013 VN13
    
    Observations:
         K13V13N* C2013 11 11.27990 03 33 23.39 +31 16 17.4          21.2 VqEV080G96
         K13V13N  C2013 11 11.28615 03 33 22.82 +31 15 39.6          21.4 VqEV080G96
         K13V13N  C2013 11 11.29239 03 33 22.18 +31 15 00.3          20.6 VqEV080G96
         K13V13N  C2013 11 11.29864 03 33 21.53 +31 14 21.8          21.2 VqEV080G96
         K13V13N  C2013 11 11.33979 03 33 17.47 +31 10 04.3          20.6 VqEV080G96
         K13V13N  C2013 11 11.34171 03 33 17.32 +31 09 52.3          21.0 VqEV080G96
         K13V13N  C2013 11 11.34362 03 33 17.15 +31 09 39.7          21.2 VqEV080G96
         K13V13N  C2013 11 11.34554 03 33 16.89 +31 09 28.2          20.9 VqEV080G96
         K13V13N KC2013 11 11.41912 03 33 09.81 +31 01 43.3          21.4 RoEV080291
         K13V13N KC2013 11 11.42040 03 33 09.66 +31 01 35.3          21.5 RoEV080291
         K13V13N KC2013 11 11.42174 03 33 09.55 +31 01 26.9          21.6 RoEV080291
         K13V13N KC2013 11 12.17213 03 32 17.28 +29 41 34.4          20.6 RoEV080291
         K13V13N KC2013 11 12.17370 03 32 17.15 +29 41 23.3          21.0 RoEV080291
         K13V13N KC2013 11 12.17529 03 32 16.98 +29 41 13.6          20.7 RoEV080291
    
    Observer details:
    291 LPL/Spacewatch II.  Observers T. H. Bressi, R. A. Mastaler.  1.8-m f/2.7
        reflector + CCD.
    G96 Mt. Lemmon Survey.  Observer A. Boattini.  Measurers A. Boattini,
        E. J. Christensen, A. R. Gibbs, A. D. Grauer, R. E. Hill, J. A. Johnson,
        R. A. Kowalski, S. M. Larson, F. C. Shelly.  1.5-m reflector + CCD.
    
    Orbital elements:
    2013 VN13                                                Earth MOID = 0.1020 AU
    Epoch 2013 Nov. 4.0 TT = JDT 2456600.5                  MPC
    M 270.62413              (2000.0)            P               Q
    n   0.80789301     Peri.  271.91856     -0.79831819     -0.54600940
    a   1.1417389      Node   235.08014     +0.59707110     -0.77271507
    e   0.1185907      Incl.   18.05222     -0.07870305     -0.32370535
    P   1.22           H   24.1           G   0.15           U   9
    Residuals in seconds of arc
    131111 G96  0.3-  0.4-    131111 G96  0.4+  0.0     131111 291  0.0   0.2+
    131111 G96  0.3+  0.5+    131111 G96  0.6+  0.6-    131112 291  0.0   0.6+
    131111 G96  0.0   0.0     131111 G96  0.3-  0.0     131112 291  0.2+  0.5-
    131111 G96  0.4-  0.3+    131111 291  0.1+  0.1-    131112 291  0.1-  0.1-
    131111 G96  0.1-  0.0     131111 291  0.2-  0.0
    
    Ephemeris:
    2013 VN13                a,e,i = 1.14, 0.12, 18                  q = 1.0063
    Date    TT    R. A. (2000) Decl.     Delta      r     Elong.  Phase     V
    2013 10 13    03 43 33.1 +54 57 35   0.3051  1.1955   124.0    43.8    23.6
    ...
    2013 10 28    03 46 33.9 +48 19 10   0.2198  1.1692   139.3    33.6    22.6
    ...
    2013 11 05    03 40 38.6 +40 33 56   0.1810  1.1543   151.8    23.9    21.8
    ...
    2013 11 11    03 33 43.8 +31 45 17   0.1581  1.1430   164.1    13.7    21.2
    2013 11 12    03 32 27.7 +30 00 22   0.1549  1.1410   166.5    11.7    21.1
    2013 11 13    03 31 10.4 +28 10 44   0.1520  1.1391   168.9     9.7    20.9
    ...
    2013 11 19    03 23 19.4 +15 46 51   0.1398  1.1276   175.1     4.3    20.5
    ...
    2013 11 27    03 13 48.0 -02 18 17   0.1391  1.1123   152.7    24.0    21.2
    ...
    2013 12 12    03 04 20.8 -27 25 22   0.1759  1.0841   120.3    51.6    22.4
    
    A. U. Tomatic                (C) Copyright 2013 MPC           M.P.E.C. 2013-V80
    

    Read MPEC 2013-V79 Read MPEC 2013-V81


    MPEC number:

    Enter an MPEC number in one of the following forms:

    • 1997-B01 (the full form)
    • J97B01 (the packed version of the full form)
    • B01 (the abbreviated form)